User: anonymous   Login
Location: Caltech
(34.1382°N, 118.1253°W)
Time: 01:12:34
(UTC-08:00)
Language:

ALOS - Orbit

View from above orbital plane
View from above orbital plane
View from above satellite
View from above satellite

Ground track
Ground track

The orbit data is extracted from the following two-line orbital elements,

1 28931U 06002A   17023.55623243  .00000175  00000-0  43266-4 0  9992
2 28931  97.8600  58.0362 0002287  72.0735 288.0717 14.62303796586320
Epoch (UTC): 23 January 2017 13:20:58
Eccentricity: 0.0002287
inclination: 97.8600°
perigee height: 684 km
apogee height: 687 km
right ascension of ascending node: 58.0362°
argument of perigee: 72.0735°
revolutions per day: 14.62303796
mean anomaly at epoch: 288.0717°
orbit number at epoch: 58632

The dashed part of the orbit path shows where the satellite is in the earth's shadow,  

DLR